Back to catalog

STARLINK-34470

AliveCommunicationsVLEO
NORAD 64703·PAYLOAD·🇺🇸 United States

Launched Jun 28, 2025 from Vandenberg Space Force Base

Loading…

Next Passes (next 24 hours)

TLE

FreshSource: CelesTrak SupGP

Epoch: Sep 14, 2026, 15:38 UTC

1 64703C 25142H   26257.65187500  .00074094  00000+0  25781-2 0  2573
2 64703  70.0014 196.5303 0002996 266.3483  37.0989 15.29534785    15

Track STARLINK-34470 in real time with AllMySat

Download on the App Store